Fairbanks Eiels, AK

6:34 PM AKDT on June 18, 2018 (GMT -0800)
Eielson Air Force Base

Weather History for PAEI - June, 2018

Change the Weather History Date:

Wednesday, June 13, 2018

  Actual Average Record
Temperature  
Mean Temperature 50 °F -  
Max Temperature 64 °F 70 °F 91 °F (1999)
Min Temperature 36 °F 49 °F 36 °F (2018)
Degree Days  
Heating Degree Days 16    
Moisture  
Dew Point 34 °F    
Average Humidity 52    
Maximum Humidity 86    
Minimum Humidity 28    
Precipitation  
Precipitation 0.00 in - - ()
Sea Level Pressure  
Sea Level Pressure 29.89 in    
Wind  
Wind Speed 3 mph (East)    
Max Wind Speed 10 mph    
Max Gust Speed -    
Visibility 10 miles    
Events      
Averages and records for this station are not official NWS values.
T = Trace of Precipitation, MM = Missing Value Source: NWS Daily Summary

Daily Weather History Graph

Daily Weather History Graph

Search for Another Location

Airport or City:

Astronomy

Jun. 13, 2018 Rise Set
Actual Time 3:06 AM AKDT 12:32 AM AKDT
Civil Twilight Sun does not set Sun does not set
Nautical Twilight Sun does not set Sun does not set
Astronomical Twilight Sun does not set Sun does not set
Moon 4:26 AM AKDT (6/13) 11:42 PM AKDT (6/13)
Length of Visible Light 24h 00m
Length of Day
21h 26m
New Moon, 0% of the Moon is Illuminated
Jun 13
New Moon
Jun 20
First Quarter
Jun 27
Full
Jul 5
Last Quarter
Jul 12
New

Hourly Weather History & Observations

Time (AKDT) Temp. Windchill Dew Point Humidity Pressure Visibility Wind Dir Wind Speed Gust Speed Precip Events Conditions
12:56 AM 45.0 °F 43.5 °F 35.4 °F 69% 29.98 in 10.0 mi SSE 3.5 mph - N/A   Overcast
1:56 AM 41.9 °F - 34.9 °F 76% 29.98 in 10.0 mi Calm Calm - N/A   Mostly Cloudy
2:56 AM 39.7 °F 36.5 °F 33.8 °F 79% 29.98 in 10.0 mi SSE 4.6 mph - N/A   Clear
3:56 AM 36.5 °F 33.9 °F 32.2 °F 84% 29.97 in 10.0 mi SSE 3.5 mph - N/A   Clear
4:56 AM 37.0 °F - 33.3 °F 86% 29.98 in 10.0 mi Calm Calm - N/A   Clear
5:56 AM 39.6 °F - 34.0 °F 80% 29.98 in 10.0 mi Calm Calm - 0.00 in   Clear
6:56 AM 42.1 °F - 35.1 °F 76% 29.97 in 10.0 mi Calm Calm - 0.00 in   Clear
7:56 AM 47.8 °F - 36.7 °F 65% 29.96 in 10.0 mi Calm Calm - N/A   Clear
8:56 AM 51.6 °F - 37.4 °F 58% 29.96 in 10.0 mi Calm Calm - N/A   Clear
9:56 AM 55.0 °F - 35.2 °F 47% 29.95 in 10.0 mi Calm Calm - N/A   Clear
10:56 AM 59.0 °F - 31.5 °F 35% 29.93 in 10.0 mi Calm Calm - N/A   Mostly Cloudy
11:56 AM 57.9 °F - 34.9 °F 42% 29.92 in 10.0 mi North 9.2 mph - N/A   Mostly Cloudy
12:56 PM 56.8 °F - 34.5 °F 43% 29.91 in 10.0 mi NNW 8.1 mph - N/A   Mostly Cloudy
1:56 PM 58.5 °F - 34.9 °F 41% 29.90 in 10.0 mi North 10.4 mph - N/A   Mostly Cloudy
2:56 PM 59.7 °F - 30.6 °F 33% 29.88 in 10.0 mi NE 8.1 mph - N/A   Mostly Cloudy
3:56 PM 61.5 °F - 31.5 °F 32% 29.86 in 10.0 mi NE 9.2 mph - N/A   Scattered Clouds
4:56 PM 61.7 °F - 30.0 °F 30% 29.84 in 10.0 mi Calm Calm - N/A   Scattered Clouds
5:56 PM 63.0 °F - 31.8 °F 31% 29.82 in 10.0 mi NNE 6.9 mph - N/A   Scattered Clouds
6:56 PM 63.1 °F - 31.3 °F 30% 29.80 in 10.0 mi SW 3.5 mph - N/A   Scattered Clouds
7:56 PM 63.7 °F - 30.0 °F 28% 29.78 in 10.0 mi Calm Calm - N/A   Scattered Clouds
8:56 PM 62.4 °F - 30.6 °F 30% 29.76 in 10.0 mi Calm Calm - N/A   Scattered Clouds
9:56 PM 56.8 °F - 34.5 °F 43% 29.75 in 10.0 mi Calm Calm - N/A   Clear
10:56 PM 50.5 °F - 37.6 °F 61% 29.75 in 10.0 mi SSE 4.6 mph - N/A   Scattered Clouds
11:56 PM 48.9 °F - 35.6 °F 60% 29.74 in 10.0 mi SSE 5.8 mph - N/A   Overcast